Bournemouth, United Kingdom

5:35 PM GMT on December 18, 2017 (GMT +0000)
Bournemouth

Weather History for EGHH - May, 2014

Change the Weather History Date:

Sunday, May 11, 2014

  Actual Average Record
Temperature  
Mean Temperature 53 °F -  
Max Temperature 60 °F 63 °F 78 °F (2008)
Min Temperature 46 °F 46 °F 33 °F (2005)
Degree Days  
Heating Degree Days 12    
Growing Degree Days 3 (Base 50)    
Moisture  
Dew Point 42 °F    
Average Humidity 66    
Maximum Humidity 87    
Minimum Humidity 39    
Precipitation  
Precipitation 0.01 in 0.07 in - ()
Sea Level Pressure  
Sea Level Pressure 29.72 in    
Wind  
Wind Speed 18 mph ()    
Max Wind Speed 26 mph    
Max Gust Speed 39 mph    
Visibility 9.4 miles    
Events Rain    
Averages and records for this station are not official NWS values.
T = Trace of Precipitation, MM = Missing Value Source: Averaged Metar Reports

Daily Weather History Graph

Daily Weather History Graph

Search for Another Location

Airport or City:

Trip Planner

Search our weather history database for the weather conditions in past years. The results will help you decide how hot, cold, wet, or windy it might be!

Date:

Astronomy

May. 11, 2014 Rise Set
Actual Time 5:24 AM BST 8:43 PM BST
Civil Twilight 4:45 AM BST 9:23 PM BST
Nautical Twilight 3:52 AM BST 10:16 PM BST
Astronomical Twilight 2:43 AM BST 11:27 PM BST
Moon 5:03 PM BST (5/11) 3:46 AM BST (5/11)
Length of Visible Light 16h 38m
Length of Day
15h 19m
Waxing Gibbous, 87% of the Moon is Illuminated
May 11
Waxing Gibbous
May 14
Full
May 21
Last Quarter
May 28
New
Jun 5
First Quarter

Hourly Weather History & Observations

Time (BST) Temp. Windchill Dew Point Humidity Pressure Visibility Wind Dir Wind Speed Gust Speed Precip Events Conditions
12:00 AM 49 °F - 41 °F 66% 29.67 in 12 mi West 18.4 mph - -  
1:00 AM 49 °F - 41 °F 66% 29.67 in 12 mi West 17.3 mph - -   Scattered Clouds
2:00 AM 49 °F - 42 °F 67% 29.66 in 12 mi WSW 19.6 mph - -   Scattered Clouds
3:00 AM 49 °F - 41 °F 66% 29.65 in 12 mi WSW 19.6 mph - -   Scattered Clouds
4:00 AM 48 °F - 42 °F 71% 29.64 in 12 mi WSW 17.3 mph - -   Mostly Cloudy
4:50 AM 48.2 °F - 41.0 °F 76% 29.62 in 6.2 mi WSW 18.4 mph 29.9 mph N/A   Partly Cloudy
5:00 AM 48 °F - 41 °F 70% 29.63 in 12 mi WSW 18.4 mph - -   Partly Cloudy
5:20 AM 48.2 °F - 41.0 °F 76% 29.62 in 6.2 mi WSW 19.6 mph - N/A   Unknown
5:50 AM 48.2 °F - 41.0 °F 76% 29.62 in 6.2 mi West 18.4 mph 29.9 mph N/A   Unknown
6:00 AM 48 °F - 41 °F 70% 29.64 in 13 mi West 18.4 mph - -   Partly Cloudy
6:20 AM 48.2 °F - 41.0 °F 76% 29.62 in 6.2 mi West 16.1 mph 27.6 mph N/A   Unknown
6:50 AM 50.0 °F - 41.0 °F 71% 29.65 in 6.2 mi West 18.4 mph - N/A   Partly Cloudy
7:00 AM 49 °F - 41 °F 66% 29.66 in 15 mi West 19.6 mph - -  
7:20 AM 50.0 °F - 41.0 °F 71% 29.65 in 6.2 mi West 18.4 mph - N/A   Partly Cloudy
7:50 AM 51.8 °F - 41.0 °F 67% 29.65 in 6.2 mi West 19.6 mph - N/A   Partly Cloudy
8:00 AM 51 °F - 42 °F 62% 29.67 in 15 mi West 19.6 mph - -   Mostly Cloudy
8:20 AM 51.8 °F - 41.0 °F 67% 29.65 in 6.2 mi West 20.7 mph - N/A   Partly Cloudy
8:50 AM 51.8 °F - 42.8 °F 71% 29.68 in 6.2 mi West 23.0 mph - N/A   Partly Cloudy
9:00 AM 52 °F - 41 °F 56% 29.68 in 16 mi West 23.0 mph - -   Scattered Clouds
9:20 AM 53.6 °F - 41.0 °F 62% 29.68 in 6.2 mi West 25.3 mph - N/A   Partly Cloudy
9:50 AM 53.6 °F - 42.8 °F 67% 29.68 in 6.2 mi West 24.2 mph - N/A   Partly Cloudy
10:00 AM 53 °F - 41 °F 54% 29.70 in 18 mi West 23.0 mph - -   Partly Cloudy
10:20 AM 53.6 °F - 41.0 °F 62% 29.68 in 6.2 mi West 21.9 mph - N/A   Partly Cloudy
10:50 AM 55.4 °F - 41.0 °F 58% 29.68 in 6.2 mi West 24.2 mph - N/A   Partly Cloudy
11:00 AM 54 °F - 40 °F 49% 29.71 in 19 mi West 25.3 mph - -   Scattered Clouds
11:20 AM 57.2 °F - 41.0 °F 55% 29.71 in 6.2 mi West 26.5 mph - N/A   Scattered Clouds
11:50 AM 55.4 °F - 39.2 °F 54% 29.71 in 6.2 mi WNW 20.7 mph 35.7 mph N/A   Scattered Clouds
12:20 PM 55.4 °F - 39.2 °F 54% 29.71 in 6.2 mi West 23.0 mph - N/A   Scattered Clouds
12:50 PM 59.0 °F - 44.6 °F 59% 29.71 in 6.2 mi West 23.0 mph - N/A   Scattered Clouds
1:00 PM 59 °F - 42 °F 43% 29.73 in 22 mi West 23.0 mph - -   Partly Cloudy
1:20 PM 59.0 °F - 41.0 °F 51% 29.71 in 6.2 mi West 24.2 mph - N/A   Scattered Clouds
1:50 PM 59.0 °F - 39.2 °F 48% 29.71 in 6.2 mi West 25.3 mph 39.1 mph N/A   Scattered Clouds
2:00 PM 58 °F - 40 °F 39% 29.74 in 22 mi West 24.2 mph - -   Scattered Clouds
2:20 PM 53.6 °F - 44.6 °F 72% 29.74 in 5.6 mi West 24.2 mph - N/A Rain Light Rain Showers
2:50 PM 53.6 °F - 44.6 °F 72% 29.74 in 6.2 mi West 19.6 mph - N/A   Scattered Clouds
3:00 PM 54 °F - 43 °F 57% 29.75 in 22 mi West 19.6 mph - - Rain Rain
3:20 PM 59.0 °F - 46.4 °F 63% 29.74 in 6.2 mi WSW 16.1 mph - N/A   Scattered Clouds
3:50 PM 57.2 °F - 44.6 °F 63% 29.74 in 6.2 mi West 20.7 mph 32.2 mph N/A   Scattered Clouds
4:00 PM 57 °F - 45 °F 54% 29.76 in 22 mi West 19.6 mph - -   Scattered Clouds
4:20 PM 57.2 °F - 44.6 °F 63% 29.74 in 6.2 mi West 17.3 mph - N/A   Scattered Clouds
4:50 PM 59.0 °F - 41.0 °F 51% 29.74 in 6.2 mi West 18.4 mph 31.1 mph N/A   Scattered Clouds
5:00 PM 58 °F - 41 °F 42% 29.75 in 19 mi West 19.6 mph - -   Partly Cloudy
5:20 PM 57.2 °F - 41.0 °F 55% 29.74 in 6.2 mi West 24.2 mph - N/A   Scattered Clouds
5:50 PM 53.6 °F - 42.8 °F 67% 29.74 in 6.2 mi West 17.3 mph - N/A   Scattered Clouds
6:00 PM 55 °F - 43 °F 54% 29.76 in 19 mi West 17.3 mph - - Rain Rain
6:20 PM 53.6 °F - 46.4 °F 77% 29.74 in 6.2 mi WSW 16.1 mph - N/A   Scattered Clouds
6:50 PM 51.8 °F - 46.4 °F 82% 29.74 in 6.2 mi West 16.1 mph - N/A   Scattered Clouds
7:00 PM 52 °F - 46 °F 74% 29.77 in 14 mi West 16.1 mph - - Rain Rain
7:20 PM 51.8 °F - 46.4 °F 82% 29.77 in 6.2 mi West 10.4 mph - N/A Rain Light Rain Showers
7:50 PM 50.0 °F - 44.6 °F 82% 29.77 in 6.2 mi West 11.5 mph - N/A Rain Light Rain Showers
8:00 PM 51 °F - 44 °F 71% 29.78 in 22 mi West 10.4 mph - - Rain Rain
8:20 PM 48.2 °F - 44.6 °F 87% 29.77 in 6.2 mi West 11.5 mph - N/A   Partly Cloudy
8:50 PM 48.2 °F - 42.8 °F 82% 29.77 in 6.2 mi West 11.5 mph - N/A   Partly Cloudy
9:00 PM 48 °F - 43 °F 75% 29.80 in 19 mi West 11.5 mph - -   Scattered Clouds
9:20 PM 48.2 °F - 41.0 °F 76% 29.80 in - West 13.8 mph - N/A   Clear
9:50 PM 46.4 °F 41.1 °F 41.0 °F 81% 29.80 in - West 11.5 mph - N/A   Clear
10:00 PM 47 °F - 42 °F 75% 29.81 in 18 mi West 11.5 mph - -  
10:20 PM 46.4 °F 40.7 °F 41.0 °F 81% 29.80 in - WSW 12.7 mph - N/A   Clear
10:50 PM 46.4 °F 41.9 °F 41.0 °F 81% 29.83 in - West 9.2 mph - N/A   Clear
11:00 PM 47 °F - 42 °F 76% 29.83 in 16 mi West 9.2 mph - -